This is the latest recevied weather packets stored in our database for station/object KD4EG. If no packets are shown the sender has not sent any weather packets the latest 10 day(s).
| Time | Temp. | Humidity | Pressure | Rain* | Wind** | Luminosity | Snow |
|---|---|---|---|---|---|---|---|
| 1777810997 | 6.67° C | 56% | 1021.6 hPa | 0 mm | - | 216 W/m² | - |
| 1777810694 | 6.67° C | 57% | 1021.7 hPa | 0 mm | - | 200 W/m² | - |
| 1777810391 | 6.67° C | 59% | 1021.6 hPa | 0 mm | - | 58 W/m² | - |
| 1777810086 | 6.11° C | 59% | 1021.5 hPa | 0 mm | - | 57 W/m² | - |
| 1777809784 | 6.11° C | 62% | 1021.4 hPa | 0 mm | - | 39 W/m² | - |
| 1777809481 | 5.56° C | 63% | 1021.4 hPa | 0 mm | - | 38 W/m² | - |
| 1777809179 | 5.56° C | 69% | 1021.2 hPa | 0 mm | - | 38 W/m² | - |
| 1777808877 | 5.56° C | 72% | 1021.2 hPa | 0 mm | - | 35 W/m² | - |
| 1777808573 | 5° C | 72% | 1021.5 hPa | 0 mm | - | 36 W/m² | - |
| 1777808270 | 4.44° C | 74% | 1021.1 hPa | 0 mm | - | 33 W/m² | - |
| 1777807969 | 4.44° C | 75% | 1021 hPa | 0 mm | - | 31 W/m² | - |
| 1777807666 | 3.89° C | 76% | 1021 hPa | 0 mm | - | 30 W/m² | - |
| 1777807364 | 3.33° C | 79% | 1021 hPa | 0 mm | - | 28 W/m² | - |
| 1777807059 | 3.33° C | 79% | 1021 hPa | 0 mm | - | 28 W/m² | - |
| 1777806757 | 3.33° C | 81% | 1020.9 hPa | 0 mm | - | 26 W/m² | - |
| 1777806453 | 3.33° C | 80% | 1020.7 hPa | 0 mm | - | 23 W/m² | - |
| 1777806150 | 3.33° C | 79% | 1020.7 hPa | 0 mm | - | 21 W/m² | - |
| 1777805846 | 3.33° C | 78% | 1020.4 hPa | 0 mm | - | 19 W/m² | - |
| 1777805544 | 3.33° C | 78% | 1020.6 hPa | 0 mm | - | 17 W/m² | - |
| 1777805241 | 3.33° C | 77% | 1020.7 hPa | 0 mm | - | 14 W/m² | - |
| 1777804939 | 2.78° C | 82% | 1020.4 hPa | 0 mm | - | 10 W/m² | - |
| 1777804636 | 2.78° C | 81% | 1020.4 hPa | 0 mm | - | 8 W/m² | - |
| 1777804334 | 2.78° C | 81% | 1020.2 hPa | 0 mm | - | 5 W/m² | - |
| 1777804030 | 2.78° C | 81% | 1019.9 hPa | 0 mm | - | 2 W/m² | - |
| 1777803728 | 2.78° C | 80% | 1020.1 hPa | 0 mm | - | 0 W/m² | - |
* Rain latest hour (hover to see other rain measurements)
** Current wind speed in m/s (hover to see current wind gust speed)